Lid_Strength_Index
8 9 9 9 9 8 8 9 8 8 8 8 7 7 7 6 6 5 4 3 2 1 0 -1 -2 -2 -2 -2 -1 -1 -1 -1 -1 -1 -1 -1 -1 -1 -1 -1 -1 -2 -2
9 9 9 9 9 9 9 9 9 9 9 8 8 8 7 7 6 6 5 3 3 2 1 -0 -1 -2 -2 -2 -2 -1 -1 -1 -1 -1 -1 -1 -1 -1 -1 -1 -1 -1 -2
10 10 10 10 10 9 10 9 9 9 10 9 9 8 8 7 7 6 5 4 3 2 2 0 -0 -1 -2 -2 -2 -1 -1 -1 -1 -1 -1 -0 -1 -1 -1 -1 -1 -1 -2
10 11 11 11 10 10 10 10 10 10 10 10 10 9 8 8 7 6 5 4 3 2 1 0 -1 -2 -2 -2 -2 -2 -1 -1 -1 -1 -1 -1 -1 -1 -1 -1 -1 -1 -2
11 11 11 11 10 11 11 10 10 10 11 10 10 9 8 8 6 4 4 3 2 0 -1 -1 -1 -1 -1 -2 -2 -2 -1 -1 -1 1 1 -1 -1 -1 -1 -1 -1 -1 -1
11 11 11 11 11 11 11 11 11 10 10 10 10 10 8 7 5 4 3 1 -0 -1 -1 -1 -1 -1 -1 -1 -1 -1 -1 -1 -1 -0 0 0 1 -1 -1 -1 -1 -1 -1
11 11 11 11 11 11 11 11 11 11 11 9 10 10 8 5 3 3 1 1 1 0 1 -0 1 -1 -1 -1 -1 -1 -1 -1 -1 -1 -0 -1 1 -0 -1 -1 -1 -1 -1
11 12 12 12 12 12 11 11 11 11 11 9 10 9 9 6 4 5 4 4 3 1 2 1 1 1 2 1 -0 -1 -1 -1 -1 -1 0 -1 -0 1 -1 -1 -1 -1 -1
12 12 12 12 12 12 12 12 11 11 11 8 6 8 9 9 8 6 5 4 4 3 1 1 2 2 2 1 0 -0 -0 -0 -1 -1 -1 -0 0 1 -0 -1 -1 -1 -1
12 12 12 12 12 12 12 12 11 10 9 8 7 6 6 7 11 11 6 6 4 3 3 1 3 3 2 3 1 -0 -0 -0 -1 -1 -1 -1 0 -0 -1 -1 -1 -1 -1
12 12 12 12 12 12 12 11 10 9 8 8 8 8 8 8 8 10 11 7 6 5 4 2 2 4 4 3 1 0 0 -0 -1 -1 -1 -1 -0 -0 -1 -1 -1 -1 -1
13 12 12 12 12 12 12 11 10 8 7 7 7 8 8 9 9 10 10 9 9 7 5 3 3 5 4 3 2 2 2 0 -0 -1 -1 -1 -1 -1 -1 -1 -0 -1 -1
14 13 13 13 13 12 12 10 9 8 8 8 7 8 7 8 8 9 9 9 9 7 6 5 3 4 4 4 4 3 3 1 -0 -0 -1 -1 -0 -0 -0 -0 -0 -0 -1
14 13 13 13 13 12 11 10 9 8 8 8 8 8 7 7 7 9 9 9 10 9 7 7 4 4 5 5 5 4 3 3 2 -0 -0 -0 0 0 0 0 -0 -0 -0
14 14 13 14 13 12 11 9 9 9 9 8 8 8 8 7 7 8 8 7 9 11 10 7 7 5 6 5 5 3 3 4 3 2 0 1 1 2 1 1 0 0 0
14 14 14 14 13 12 10 10 10 9 9 8 8 9 8 7 8 8 7 8 8 9 10 8 8 6 5 6 4 5 4 4 4 3 3 3 2 3 2 1 1 1 1
14 14 14 14 13 11 10 10 10 9 9 8 8 9 9 8 8 8 8 8 9 9 10 8 8 7 7 6 6 6 5 6 7 4 3 4 3 3 3 3 2 1 2
14 15 14 13 13 11 11 10 10 9 9 9 9 9 10 9 9 8 8 8 9 9 9 11 9 8 7 6 7 7 6 6 7 6 4 4 3 3 3 3 3 2 2
15 14 14 13 12 12 11 10 10 10 9 9 9 9 10 10 9 9 8 8 9 9 8 10 10 9 8 7 7 7 6 8 8 7 7 5 4 4 5 4 4 3 3
15 15 14 12 12 11 11 10 10 10 9 9 9 9 9 9 9 9 9 9 8 9 8 9 10 10 9 7 7 8 7 8 10 9 8 8 6 6 5 6 6 6 5
15 14 13 12 12 11 11 11 10 9 9 9 8 8 8 8 8 7 8 8 8 9 8 9 10 10 10 9 8 8 8 9 9 9 9 10 8 8 7 7 6 6 4
14 14 13 12 12 11 9 9 9 9 8 8 9 9 8 7 8 7 7 7 7 7 8 8 10 10 10 9 8 8 9 9 10 9 11 11 9 9 8 7 6 6 5
14 14 12 12 11 10 9 8 8 8 9 9 9 9 9 9 8 8 7 7 6 6 7 7 8 10 10 9 8 9 10 10 11 11 11 13 11 11 9 7 5 5 5
14 13 12 11 10 9 8 8 7 8 9 9 9 9 9 9 8 8 8 8 8 7 7 7 7 7 8 7 7 8 9 11 10 11 11 13 12 12 11 9 6 5 5
13 12 11 11 10 10 8 8 8 8 9 9 8 8 8 9 8 7 8 9 8 8 6 7 6 7 8 7 7 8 10 11 11 12 11 12 12 12 12 13 10 6 5
12 11 11 10 10 10 8 8 7 8 8 8 8 8 7 7 7 7 7 8 9 8 8 7 7 7 7 8 7 7 8 11 11 11 11 11 12 12 13 12 13 9 7